Simultaneous Nadir Overpasses (SNOs) Predictions

Prediction of SNOs between GOES-16 and NOAA-19 Satellite Orbit:

Table of predicted SNOs for the next 14.0 days since TLE Epoch: 8/23/2019
Index Date Time (GOES-16) GOES-16 Lat,Lon NOAA-19 Lat,Lon Distance(km) Time Diff (sec)
1 08/23/2019 22:14:21 0.03, -75.21 0.00, -76.84 181.35 0
2 08/24/2019 22:03:58 0.03, -75.21 0.35, -73.93 147.34 80
3 08/25/2019 21:52:19 0.03, -75.22 1.00, -71.08 471.91 80
4 08/27/2019 10:25:01 -0.03, -75.22 0.80, -78.91 420.37 80
5 08/28/2019 10:13:22 -0.04, -75.23 0.13, -76.07 95.51 80
6 08/29/2019 09:59:04 -0.04, -75.23 -0.53, -73.23 229.57 80
7 08/31/2019 22:22:55 0.04, -75.25 -0.65, -78.23 340.69 80
8 09/01/2019 22:11:16 0.04, -75.26 0.00, -75.39 15.07 80
9 09/02/2019 21:56:58 0.04, -75.27 0.65, -72.55 310.80 80
10 09/05/2019 10:20:39 -0.04, -75.31 0.47, -77.52 252.04 80
11 09/06/2019 10:06:20 -0.04, -75.33 -0.20, -74.68 74.25 80




NCC Satellite Simultaneous Nadir Overpasses (SNOs) Prediction Service
